Total_Precipitation_Accumulation
0.03 0.04 0.03 0.03 0.03 0.03 0.03 0.03 0.02 0.02 0.02 0.02 0.02 0.02 0.02 0.03 0.03 0.04 0.04 0.04 0.02 0.02 0.02 0.02 0.02 0.02 0.01 0.01 0.01 0.00 0.01 0.00 0.00 0.00 0.00 0.00 0.00 0.00 0.00 0.00 0.00 0.00 0.00 0.00 0.01 0.00 0.01 0.00 0.00 0.01 0.01 0.01 0.01 0.06 0.01 0.03 0.14 0.34 1.77 1.52 1.83 2.23 2.06 3.12 3.09 3.62 2.53 2.93 2.26 1.95 1.78 1.72 0.86 0.59 0.96 0.38 0.42 0.67 0.25 0.22 0.05 0.05 0.06 0.02 0.00 0.00 0.00 0.01
0.04 0.03 0.02 0.02 0.03 0.03 0.02 0.02 0.02 0.01 0.01 0.02 0.02 0.02 0.03 0.03 0.03 0.03 0.03 0.02 0.02 0.03 0.03 0.04 0.02 0.01 0.02 0.01 0.00 0.00 0.01 0.00 0.00 0.00 0.00 0.00 0.00 0.00 0.00 0.00 0.00 0.00 0.00 0.00 0.00 0.00 0.00 0.00 0.00 0.00 0.01 0.03 0.00 0.02 0.02 0.11 0.04 0.44 0.81 1.75 2.14 1.24 1.04 1.68 1.76 3.07 3.10 1.99 1.69 1.95 1.68 1.64 1.50 0.50 0.68 0.75 0.33 0.23 0.18 0.20 0.11 0.05 0.04 0.00 0.01 0.00 0.01 0.02
0.03 0.03 0.03 0.03 0.03 0.03 0.02 0.02 0.01 0.01 0.02 0.02 0.02 0.03 0.03 0.03 0.03 0.03 0.02 0.02 0.02 0.03 0.04 0.03 0.02 0.02 0.01 0.01 0.00 0.00 0.01 0.00 0.00 0.00 0.00 0.00 0.00 0.00 0.00 0.00 0.00 0.00 0.00 0.00 0.00 0.00 0.00 0.00 0.00 0.00 0.00 0.01 0.01 0.05 0.01 0.15 0.08 0.34 0.66 2.05 2.21 0.99 1.53 1.22 2.51 2.59 2.89 2.10 1.54 1.80 1.26 2.01 1.16 1.58 0.64 0.75 0.62 0.54 0.30 0.14 0.06 0.04 0.04 0.02 0.05 0.02 0.02 0.03
0.02 0.02 0.03 0.03 0.03 0.02 0.02 0.01 0.01 0.01 0.02 0.02 0.02 0.02 0.03 0.03 0.02 0.02 0.02 0.02 0.03 0.03 0.03 0.03 0.02 0.02 0.02 0.00 0.00 0.01 0.00 0.00 0.00 0.00 0.00 0.00 0.00 0.00 0.00 0.00 0.00 0.00 0.00 0.00 0.00 0.00 0.00 0.00 0.00 0.00 0.00 0.01 0.00 0.01 0.04 0.07 0.15 1.05 0.60 1.12 1.92 0.72 1.24 1.19 2.33 2.79 2.46 2.32 2.56 1.50 1.74 1.57 1.18 0.95 1.08 0.78 0.73 0.39 0.36 0.08 0.08 0.02 0.01 0.02 0.01 0.02 0.01 0.03
0.02 0.02 0.03 0.03 0.02 0.02 0.02 0.02 0.01 0.02 0.01 0.02 0.02 0.02 0.03 0.02 0.02 0.01 0.02 0.03 0.03 0.02 0.02 0.02 0.02 0.02 0.00 0.00 0.00 0.00 0.00 0.00 0.00 0.00 0.00 0.00 0.00 0.00 0.00 0.00 0.00 0.00 0.00 0.00 0.00 0.00 0.00 0.00 0.00 0.00 0.00 0.00 0.01 0.02 0.02 0.03 0.01 0.09 0.48 0.59 0.80 0.76 1.08 0.75 1.23 1.28 1.92 2.47 2.09 1.71 1.32 1.90 1.41 0.58 0.91 0.73 0.98 0.76 0.45 0.09 0.06 0.00 0.00 0.00 0.01 0.01 0.01 0.01
0.02 0.03 0.03 0.03 0.02 0.01 0.02 0.01 0.01 0.02 0.02 0.02 0.02 0.01 0.02 0.02 0.02 0.03 0.03 0.03 0.03 0.02 0.01 0.02 0.03 0.01 0.01 0.00 0.00 0.01 0.00 0.00 0.00 0.00 0.00 0.00 0.00 0.00 0.00 0.00 0.00 0.00 0.00 0.00 0.00 0.00 0.00 0.00 0.00 0.00 0.00 0.00 0.01 0.02 0.00 0.03 0.03 0.81 0.62 0.58 0.56 0.34 0.93 0.42 1.03 1.77 2.42 2.29 2.28 1.28 1.84 1.22 1.12 0.97 1.02 0.79 2.02 1.02 0.35 0.19 0.04 0.00 0.00 0.00 0.00 0.00 0.01 0.00
0.02 0.04 0.03 0.02 0.02 0.01 0.01 0.02 0.02 0.02 0.02 0.02 0.02 0.01 0.01 0.02 0.02 0.03 0.03 0.02 0.03 0.02 0.02 0.01 0.02 0.01 0.00 0.01 0.00 0.00 0.00 0.00 0.00 0.00 0.00 0.00 0.00 0.00 0.00 0.00 0.00 0.00 0.00 0.00 0.00 0.00 0.00 0.00 0.00 0.00 0.00 0.00 0.00 0.00 0.00 0.01 0.06 0.11 0.74 0.44 0.69 0.52 0.23 0.40 1.08 2.15 2.08 1.64 2.00 1.78 1.19 1.46 1.08 1.44 0.82 1.22 0.79 0.65 0.43 0.37 0.02 0.02 0.00 0.00 0.00 0.00 0.00 0.00
0.03 0.02 0.02 0.01 0.01 0.02 0.02 0.02 0.02 0.03 0.02 0.02 0.02 0.02 0.02 0.02 0.02 0.01 0.01 0.02 0.02 0.02 0.02 0.02 0.02 0.00 0.00 0.00 0.00 0.00 0.00 0.00 0.00 0.00 0.00 0.00 0.00 0.00 0.00 0.00 0.00 0.00 0.00 0.00 0.00 0.00 0.00 0.00 0.00 0.00 0.00 0.00 0.01 0.01 0.00 0.01 0.08 0.24 0.27 0.40 0.47 0.62 0.46 0.70 0.83 2.04 2.39 2.72 2.12 1.28 1.15 1.74 1.03 0.98 0.41 0.78 0.46 0.16 0.35 0.11 0.02 0.00 0.00 0.00 0.00 0.00 0.00 0.00
0.02 0.02 0.02 0.01 0.01 0.02 0.01 0.02 0.02 0.02 0.02 0.01 0.02 0.02 0.03 0.02 0.01 0.01 0.02 0.01 0.02 0.02 0.01 0.02 0.00 0.00 0.01 0.00 0.00 0.00 0.00 0.00 0.00 0.00 0.00 0.00 0.00 0.00 0.00 0.00 0.00 0.00 0.00 0.00 0.00 0.00 0.00 0.00 0.00 0.00 0.00 0.00 0.00 0.00 0.00 0.02 0.46 0.07 0.35 0.12 0.29 0.44 0.55 1.04 1.01 1.57 1.47 1.78 1.75 1.37 1.48 1.67 1.01 0.51 1.27 1.35 0.74 0.42 0.31 0.08 0.01 0.00 0.00 0.00 0.00 0.00 0.00 0.00
0.02 0.02 0.01 0.01 0.01 0.01 0.01 0.01 0.02 0.02 0.02 0.02 0.02 0.03 0.02 0.01 0.01 0.01 0.01 0.01 0.01 0.02 0.01 0.01 0.00 0.01 0.00 0.00 0.00 0.00 0.00 0.00 0.00 0.00 0.00 0.00 0.00 0.00 0.00 0.00 0.00 0.00 0.00 0.00 0.00 0.00 0.00 0.00 0.00 0.00 0.00 0.00 0.00 0.01 0.00 0.02 0.91 0.02 0.12 0.45 0.47 0.92 0.68 1.10 0.77 0.87 1.69 1.62 1.54 1.97 1.46 1.71 0.68 0.51 1.15 1.22 0.30 0.27 0.43 0.05 0.03 0.00 0.00 0.00 0.00 0.00 0.00 0.00
0.02 0.01 0.01 0.01 0.01 0.01 0.01 0.01 0.01 0.02 0.02 0.02 0.03 0.02 0.01 0.02 0.01 0.01 0.01 0.01 0.01 0.01 0.01 0.01 0.00 0.01 0.00 0.00 0.00 0.00 0.00 0.00 0.00 0.00 0.00 0.00 0.00 0.00 0.00 0.00 0.00 0.00 0.00 0.00 0.00 0.00 0.00 0.00 0.00 0.00 0.00 0.04 0.00 0.00 0.00 0.12 0.01 0.03 0.06 0.30 0.58 0.69 0.69 0.95 1.46 0.92 1.68 2.23 2.06 3.96 2.12 1.79 1.70 0.62 1.23 0.55 0.30 0.57 0.57 0.05 0.03 0.00 0.00 0.00 0.00 0.00 0.00 0.00
0.01 0.01 0.01 0.01 0.01 0.01 0.01 0.01 0.01 0.02 0.03 0.03 0.02 0.01 0.02 0.01 0.01 0.01 0.01 0.01 0.01 0.01 0.00 0.01 0.00 0.00 0.00 0.00 0.00 0.00 0.00 0.00 0.00 0.00 0.00 0.00 0.00 0.00 0.00 0.00 0.00 0.00 0.00 0.00 0.00 0.00 0.00 0.00 0.00 0.00 0.01 0.00 0.02 0.00 0.00 0.00 0.02 0.02 0.18 0.66 0.85 1.14 1.17 1.29 1.37 1.63 1.81 1.69 2.00 2.41 1.55 1.57 1.65 1.04 0.80 0.52 0.32 0.37 0.39 0.11 0.02 0.01 0.00 0.01 0.00 0.00 0.00 0.00
0.01 0.01 0.01 0.00 0.00 0.01 0.01 0.01 0.02 0.03 0.02 0.01 0.01 0.01 0.01 0.01 0.01 0.01 0.00 0.00 0.00 0.01 0.02 0.00 0.01 0.00 0.00 0.00 0.00 0.00 0.00 0.00 0.00 0.00 0.00 0.00 0.00 0.00 0.00 0.00 0.00 0.00 0.00 0.00 0.00 0.00 0.00 0.00 0.00 0.00 0.00 0.00 0.00 0.03 0.08 0.00 0.02 0.03 0.07 0.41 0.42 0.90 1.26 1.15 1.72 1.97 1.77 2.56 2.09 1.86 1.90 1.28 1.91 0.95 0.71 0.23 0.37 0.27 0.22 0.24 0.01 0.01 0.00 0.00 0.00 0.00 0.00 0.00
0.02 0.01 0.01 0.01 0.00 0.01 0.02 0.02 0.02 0.03 0.01 0.01 0.01 0.01 0.01 0.01 0.01 0.00 0.00 0.00 0.00 0.01 0.01 0.00 0.00 0.00 0.00 0.00 0.00 0.00 0.00 0.00 0.00 0.00 0.00 0.00 0.00 0.00 0.00 0.00 0.00 0.00 0.00 0.00 0.00 0.00 0.00 0.00 0.00 0.00 0.00 0.00 0.00 0.00 0.34 0.01 0.02 0.26 0.15 0.26 0.55 0.15 1.10 0.85 0.93 1.27 1.58 1.59 1.13 0.87 1.79 1.63 1.98 0.96 0.82 0.26 0.41 0.09 0.15 0.14 0.09 0.01 0.01 0.00 0.00 0.00 0.00 0.00
0.01 0.01 0.01 0.01 0.01 0.01 0.01 0.02 0.02 0.02 0.02 0.01 0.01 0.01 0.01 0.00 0.00 0.00 0.00 0.00 0.00 0.01 0.00 0.02 0.00 0.00 0.00 0.00 0.00 0.00 0.00 0.00 0.00 0.00 0.00 0.00 0.00 0.00 0.00 0.00 0.00 0.00 0.00 0.00 0.00 0.00 0.00 0.00 0.00 0.00 0.00 0.00 0.00 0.03 0.04 0.04 0.02 0.06 0.12 0.36 0.13 0.23 1.03 0.86 0.59 1.13 1.15 1.08 1.15 0.90 1.78 1.81 1.40 0.91 0.79 0.51 0.36 0.81 0.58 0.23 0.04 0.02 0.01 0.00 0.00 0.00 0.00 0.00
0.00 0.01 0.00 0.01 0.01 0.01 0.01 0.01 0.01 0.02 0.02 0.01 0.01 0.01 0.00 0.00 0.00 0.00 0.00 0.00 0.00 0.01 0.02 0.00 0.00 0.00 0.00 0.00 0.00 0.00 0.00 0.00 0.00 0.00 0.00 0.00 0.00 0.00 0.00 0.00 0.00 0.00 0.00 0.00 0.00 0.00 0.00 0.00 0.00 0.00 0.00 0.00 0.00 0.01 0.05 0.06 0.11 0.05 0.09 0.25 0.29 0.30 0.81 1.07 1.26 1.10 1.47 1.47 1.54 1.61 2.47 1.51 1.38 1.06 0.84 0.36 0.77 0.69 0.35 0.20 0.07 0.03 0.03 0.02 0.02 0.01 0.01 0.00
0.00 0.00 0.00 0.01 0.01 0.01 0.01 0.01 0.01 0.01 0.01 0.01 0.00 0.00 0.00 0.00 0.00 0.00 0.00 0.01 0.01 0.00 0.00 0.00 0.00 0.00 0.00 0.00 0.00 0.00 0.00 0.00 0.00 0.00 0.00 0.00 0.00 0.00 0.00 0.00 0.00 0.00 0.00 0.00 0.00 0.00 0.00 0.00 0.00 0.00 0.00 0.00 0.00 0.01 0.10 0.10 0.13 0.10 0.05 0.29 0.62 0.55 0.52 0.91 0.65 1.36 1.55 1.40 1.63 0.87 1.60 1.47 0.67 0.85 0.56 0.47 0.54 0.58 0.14 0.13 0.13 0.05 0.02 0.03 0.05 0.01 0.02 0.02
0.00 0.00 0.00 0.01 0.01 0.02 0.02 0.01 0.01 0.01 0.01 0.00 0.00 0.00 0.00 0.00 0.00 0.00 0.00 0.00 0.00 0.00 0.00 0.00 0.00 0.00 0.00 0.00 0.00 0.00 0.00 0.00 0.00 0.00 0.00 0.00 0.00 0.00 0.00 0.00 0.00 0.00 0.00 0.00 0.00 0.00 0.00 0.00 0.00 0.00 0.00 0.00 0.00 0.00 0.05 0.14 0.07 0.15 0.30 0.16 0.44 0.45 0.55 0.90 0.45 0.77 1.16 1.27 1.68 1.04 1.38 1.51 1.25 0.59 0.77 0.57 0.97 0.57 0.34 0.16 0.44 0.09 0.05 0.04 0.04 0.03 0.06 0.03
0.00 0.00 0.00 0.00 0.01 0.02 0.01 0.01 0.01 0.01 0.01 0.00 0.00 0.00 0.00 0.01 0.00 0.00 0.00 0.00 0.00 0.00 0.00 0.00 0.00 0.00 0.00 0.00 0.00 0.00 0.00 0.00 0.00 0.00 0.00 0.00 0.00 0.00 0.00 0.00 0.00 0.00 0.00 0.00 0.00 0.00 0.00 0.00 0.00 0.00 0.00 0.00 0.00 0.00 0.05 0.02 0.01 0.16 0.30 0.24 0.57 0.58 0.80 1.04 0.55 0.40 0.58 1.07 1.21 1.19 0.93 1.56 1.36 1.65 1.54 1.26 0.47 0.81 0.41 0.45 0.60 0.23 0.09 0.06 0.06 0.02 0.04 0.05
0.00 0.00 0.00 0.00 0.00 0.02 0.02 0.01 0.01 0.01 0.02 0.00 0.00 0.00 0.00 0.00 0.00 0.00 0.00 0.00 0.00 0.00 0.00 0.00 0.00 0.00 0.00 0.00 0.00 0.00 0.00 0.00 0.00 0.00 0.00 0.00 0.00 0.00 0.00 0.00 0.00 0.00 0.00 0.00 0.00 0.00 0.00 0.00 0.00 0.00 0.00 0.00 0.00 0.00 0.02 0.00 0.00 0.03 0.04 0.05 0.30 0.26 0.51 0.62 0.92 0.51 1.32 1.31 1.32 1.23 1.16 1.44 1.23 1.53 1.72 1.60 0.86 1.11 0.74 0.88 0.50 0.35 0.47 0.08 0.05 0.05 0.06 0.02
0.00 0.00 0.00 0.00 0.00 0.00 0.01 0.01 0.01 0.01 0.02 0.00 0.00 0.00 0.00 0.00 0.00 0.00 0.00 0.00 0.00 0.00 0.00 0.00 0.00 0.00 0.00 0.00 0.00 0.00 0.00 0.00 0.00 0.00 0.00 0.00 0.00 0.00 0.00 0.00 0.00 0.00 0.00 0.00 0.00 0.00 0.00 0.00 0.00 0.00 0.00 0.00 0.00 0.00 0.00 0.01 0.00 0.05 0.02 0.14 0.09 0.24 0.50 0.50 0.76 0.91 1.89 1.08 1.21 1.78 1.83 2.03 1.97 1.84 1.92 2.20 0.86 0.66 0.20 0.30 0.30 0.53 0.22 0.19 0.04 0.03 0.08 0.05
0.00 0.00 0.00 0.00 0.00 0.00 0.00 0.00 0.01 0.01 0.01 0.00 0.00 0.00 0.00 0.00 0.00 0.00 0.00 0.00 0.00 0.00 0.00 0.00 0.00 0.00 0.00 0.00 0.00 0.00 0.00 0.00 0.00 0.00 0.00 0.00 0.00 0.00 0.00 0.00 0.00 0.00 0.00 0.00 0.00 0.00 0.00 0.00 0.00 0.00 0.00 0.00 0.00 0.00 0.00 0.00 0.00 0.03 0.09 0.05 0.31 0.19 0.49 0.60 1.24 1.03 1.76 1.48 1.89 2.63 2.35 2.72 2.64 2.20 2.31 2.24 1.10 1.06 0.62 0.42 0.74 0.51 0.41 0.35 0.20 0.06 0.07 0.02
0.00 0.00 0.00 0.00 0.00 0.00 0.00 0.01 0.00 0.01 0.00 0.00 0.00 0.00 0.00 0.00 0.00 0.00 0.00 0.00 0.00 0.00 0.00 0.00 0.00 0.00 0.00 0.00 0.00 0.00 0.00 0.00 0.00 0.00 0.00 0.00 0.00 0.00 0.00 0.00 0.00 0.00 0.00 0.00 0.00 0.00 0.00 0.00 0.00 0.00 0.00 0.00 0.00 0.00 0.00 0.00 0.00 0.01 0.03 0.06 0.19 0.44 0.23 0.44 1.52 1.48 2.28 0.90 2.01 1.94 1.29 2.41 3.15 2.76 2.83 2.23 1.32 1.64 1.58 0.87 0.70 1.19 0.79 0.52 0.25 0.34 0.11 0.04
0.00 0.00 0.00 0.00 0.00 0.00 0.01 0.00 0.02 0.01 0.00 0.00 0.00 0.00 0.00 0.00 0.00 0.00 0.00 0.00 0.00 0.00 0.00 0.00 0.00 0.00 0.00 0.00 0.00 0.00 0.00 0.00 0.00 0.00 0.00 0.00 0.00 0.00 0.00 0.00 0.00 0.00 0.00 0.00 0.00 0.00 0.00 0.00 0.00 0.00 0.00 0.00 0.00 0.00 0.00 0.00 0.00 0.00 0.00 0.02 0.11 0.11 0.32 0.41 0.56 0.38 1.32 1.45 1.08 1.96 2.42 2.72 1.98 2.43 1.87 2.10 1.53 2.19 1.45 1.36 1.37 1.19 0.98 0.48 0.35 0.47 0.36 0.13
0.00 0.01 0.01 0.00 0.00 0.01 0.00 0.01 0.00 0.00 0.00 0.00 0.00 0.00 0.00 0.00 0.00 0.00 0.00 0.00 0.00 0.00 0.00 0.00 0.00 0.00 0.00 0.00 0.00 0.00 0.00 0.00 0.00 0.00 0.00 0.00 0.00 0.00 0.00 0.00 0.00 0.00 0.00 0.00 0.00 0.00 0.00 0.00 0.00 0.00 0.00 0.00 0.00 0.00 0.00 0.00 0.01 0.00 0.00 0.00 0.03 0.03 0.38 0.12 0.19 0.15 0.53 1.09 0.72 0.75 1.53 2.64 1.30 1.37 0.93 1.21 1.64 1.57 1.53 1.45 1.21 1.07 0.79 0.36 0.39 0.17 0.37 0.40
0.00 0.01 0.01 0.01 0.01 0.01 0.01 0.00 0.00 0.00 0.00 0.00 0.00 0.00 0.00 0.00 0.00 0.00 0.00 0.00 0.01 0.00 0.00 0.00 0.00 0.00 0.00 0.00 0.00 0.00 0.00 0.00 0.00 0.00 0.00 0.00 0.00 0.00 0.00 0.00 0.00 0.00 0.00 0.00 0.00 0.00 0.00 0.00 0.00 0.00 0.00 0.00 0.00 0.01 0.00 0.00 0.00 0.00 0.03 0.00 0.00 0.02 0.24 0.19 0.26 0.28 0.29 0.84 0.42 0.41 0.65 1.69 1.44 1.36 1.60 1.54 1.28 1.63 1.89 1.37 1.13 1.06 0.91 0.47 0.42 0.19 0.08 0.05
0.00 0.00 0.01 0.01 0.01 0.02 0.00 0.00 0.00 0.00 0.00 0.00 0.00 0.00 0.00 0.00 0.00 0.00 0.00 0.00 0.02 0.00 0.00 0.00 0.00 0.00 0.00 0.00 0.00 0.00 0.00 0.00 0.00 0.00 0.00 0.00 0.00 0.00 0.00 0.00 0.00 0.00 0.00 0.00 0.00 0.00 0.00 0.00 0.00 0.00 0.00 0.00 0.00 0.00 0.00 0.00 0.00 0.01 0.00 0.01 0.01 0.02 0.07 0.02 0.08 0.19 0.64 0.30 0.70 0.77 0.30 1.04 1.10 1.15 1.16 1.78 1.63 1.58 1.71 1.20 1.47 1.05 0.75 0.70 0.29 0.38 0.12 0.06
0.00 0.00 0.00 0.01 0.01 0.05 0.01 0.00 0.00 0.00 0.00 0.00 0.00 0.00 0.00 0.00 0.00 0.00 0.00 0.07 0.00 0.00 0.00 0.00 0.00 0.00 0.00 0.00 0.00 0.00 0.02 0.00 0.00 0.00 0.00 0.00 0.00 0.00 0.00 0.00 0.00 0.00 0.00 0.00 0.00 0.00 0.00 0.00 0.00 0.00 0.00 0.00 0.00 0.00 0.00 0.00 0.00 0.00 0.01 0.00 0.00 0.00 0.00 0.01 0.02 0.05 0.14 0.05 0.67 0.36 0.36 0.81 0.81 1.17 0.83 1.48 2.08 1.77 1.95 1.94 1.28 0.83 0.55 0.51 0.40 0.24 0.16 0.07
0.00 0.00 0.01 0.01 0.00 0.00 0.01 0.00 0.00 0.00 0.00 0.00 0.00 0.00 0.00 0.00 0.00 0.00 0.04 0.11 0.00 0.00 0.00 0.00 0.00 0.00 0.00 0.00 0.00 0.00 0.00 0.00 0.03 0.00 0.00 0.00 0.00 0.00 0.00 0.00 0.00 0.00 0.00 0.00 0.00 0.00 0.00 0.00 0.00 0.00 0.00 0.00 0.00 0.00 0.00 0.00 0.00 0.00 0.00 0.00 0.00 0.02 0.06 0.04 0.05 0.07 0.19 0.06 0.13 0.12 0.27 0.46 0.69 1.28 0.86 1.25 1.22 1.05 1.17 1.39 1.18 1.27 0.63 0.48 0.42 0.37 0.51 0.31
0.00 0.01 0.01 0.01 0.01 0.00 0.00 0.00 0.00 0.00 0.00 0.00 0.00 0.00 0.00 0.00 0.00 0.04 0.04 0.07 0.00 0.00 0.00 0.00 0.00 0.00 0.00 0.00 0.00 0.00 0.00 0.00 0.00 0.00 0.00 0.00 0.00 0.00 0.00 0.00 0.00 0.00 0.00 0.00 0.00 0.00 0.00 0.00 0.00 0.00 0.00 0.00 0.00 0.00 0.00 0.00 0.00 0.00 0.00 0.00 0.00 0.01 0.02 0.07 0.23 0.33 0.15 0.08 0.11 0.09 0.18 0.10 0.74 0.83 0.52 0.82 0.49 0.58 0.69 1.09 1.10 1.05 0.83 0.56 0.40 0.35 0.28 0.24
0.01 0.00 0.01 0.03 0.01 0.00 0.00 0.00 0.00 0.00 0.00 0.00 0.00 0.00 0.00 0.00 0.02 0.07 0.11 0.02 0.00 0.00 0.00 0.00 0.00 0.00 0.00 0.00 0.00 0.00 0.00 0.00 0.00 0.00 0.00 0.00 0.00 0.00 0.00 0.00 0.00 0.00 0.00 0.00 0.02 0.00 0.00 0.00 0.00 0.00 0.00 0.00 0.00 0.00 0.00 0.00 0.00 0.00 0.00 0.19 0.06 0.25 0.48 0.34 0.66 1.11 0.18 0.07 0.05 0.17 0.27 0.17 0.41 0.92 0.56 0.20 0.15 0.17 0.31 0.78 1.11 1.20 0.74 0.68 0.59 0.68 0.28 0.35
0.00 0.00 0.00 0.02 0.00 0.01 0.00 0.00 0.00 0.00 0.00 0.00 0.00 0.00 0.00 0.10 0.08 0.13 0.05 0.00 0.03 0.00 0.00 0.00 0.00 0.00 0.00 0.00 0.00 0.00 0.00 0.00 0.00 0.00 0.00 0.00 0.00 0.00 0.00 0.00 0.00 0.04 0.00 0.00 0.00 0.00 0.00 0.00 0.00 0.00 0.00 0.00 0.00 0.00 0.00 0.00 0.00 0.00 0.02 0.02 0.15 0.32 0.91 0.25 0.80 0.26 0.05 0.26 0.54 0.44 0.56 0.71 0.27 0.34 0.24 0.32 0.16 0.16 0.13 0.21 0.48 0.88 0.84 0.70 0.56 0.66 0.67 0.62
0.00 0.00 0.01 0.01 0.01 0.00 0.00 0.00 0.00 0.00 0.00 0.00 0.00 0.00 0.01 0.21 0.10 0.06 0.04 0.00 0.04 0.00 0.00 0.00 0.00 0.00 0.00 0.00 0.00 0.00 0.00 0.03 0.00 0.00 0.00 0.00 0.00 0.00 0.00 0.00 0.00 0.00 0.01 0.00 0.00 0.00 0.00 0.00 0.00 0.00 0.00 0.00 0.00 0.00 0.00 0.00 0.08 0.01 0.01 0.02 0.02 0.15 0.10 0.20 0.12 0.13 0.19 0.18 0.35 0.34 0.53 0.58 0.43 0.20 0.11 0.19 0.19 0.10 0.10 0.09 0.33 0.73 0.79 0.67 0.48 0.28 0.56 0.60
0.00 0.00 0.00 0.00 0.00 0.00 0.00 0.00 0.00 0.00 0.00 0.00 0.00 0.00 0.06 0.10 0.18 0.02 0.01 0.00 0.01 0.00 0.00 0.01 0.00 0.00 0.00 0.03 0.01 0.00 0.01 0.00 0.00 0.01 0.00 0.01 0.00 0.00 0.00 0.00 0.00 0.00 0.00 0.01 0.00 0.00 0.01 0.00 0.00 0.00 0.00 0.00 0.00 0.00 0.00 0.01 0.00 0.07 0.01 0.00 0.03 0.09 0.15 0.29 0.27 0.43 0.15 0.47 0.20 0.33 0.16 0.72 0.35 1.54 0.14 0.49 0.11 0.13 0.09 0.11 0.24 0.46 0.82 1.03 0.92 0.48 0.50 0.35
0.00 0.00 0.00 0.00 0.00 0.00 0.00 0.00 0.00 0.00 0.00 0.00 0.00 0.10 0.18 0.07 0.03 0.04 0.01 0.00 0.00 0.00 0.00 0.00 0.00 0.00 0.01 0.00 0.00 0.00 0.00 0.01 0.00 0.00 0.00 0.00 0.00 0.01 0.00 0.00 0.00 0.00 0.00 0.00 0.00 0.00 0.00 0.00 0.00 0.00 0.00 0.00 0.00 0.00 0.00 0.00 0.01 0.01 0.09 0.03 0.01 0.01 0.00 0.05 0.20 0.15 0.17 0.23 0.23 0.41 0.45 0.48 0.41 0.37 0.33 0.35 0.26 0.12 0.19 0.39 0.44 0.78 0.92 0.99 0.99 0.99 0.73 0.45
0.00 0.00 0.00 0.00 0.00 0.00 0.00 0.00 0.00 0.00 0.00 0.00 0.06 0.17 0.23 0.01 0.03 0.00 0.01 0.00 0.00 0.00 0.00 0.00 0.00 0.00 0.00 0.01 0.00 0.01 0.00 0.00 0.00 0.00 0.00 0.00 0.00 0.02 0.00 0.00 0.00 0.00 0.00 0.01 0.01 0.00 0.00 0.00 0.00 0.00 0.00 0.00 0.00 0.00 0.00 0.00 0.04 0.01 0.02 0.02 0.00 0.01 0.00 0.12 0.01 0.07 0.07 0.19 0.32 0.13 0.36 0.19 0.05 0.31 0.31 0.66 0.79 0.39 0.39 0.39 0.31 0.66 0.62 0.67 0.67 0.61 0.88 0.41
0.00 0.00 0.01 0.00 0.00 0.00 0.00 0.00 0.00 0.00 0.00 0.00 0.16 0.22 0.01 0.00 0.00 0.00 0.00 0.00 0.00 0.00 0.00 0.00 0.00 0.00 0.00 0.05 0.03 0.00 0.00 0.00 0.00 0.00 0.02 0.00 0.01 0.00 0.00 0.00 0.00 0.00 0.00 0.00 0.00 0.00 0.00 0.00 0.00 0.00 0.00 0.00 0.00 0.00 0.00 0.00 0.00 0.00 0.01 0.00 0.00 0.00 0.02 0.04 0.20 0.10 0.15 0.27 0.62 0.22 0.37 0.52 0.19 0.79 0.49 0.92 0.76 0.75 0.26 0.23 0.36 0.32 0.46 0.83 0.44 0.58 0.42 0.62
0.00 0.00 0.00 0.00 0.00 0.00 0.00 0.00 0.00 0.00 0.00 0.07 0.16 0.01 0.00 0.01 0.00 0.00 0.00 0.00 0.00 0.00 0.00 0.00 0.00 0.00 0.00 0.00 0.04 0.01 0.00 0.00 0.00 0.00 0.02 0.00 0.06 0.00 0.00 0.00 0.00 0.00 0.00 0.00 0.00 0.00 0.00 0.00 0.00 0.00 0.00 0.00 0.00 0.00 0.00 0.00 0.00 0.00 0.01 0.01 0.03 0.12 0.02 0.00 0.01 0.10 0.13 0.23 0.38 0.46 0.48 0.41 0.38 0.60 0.24 0.26 0.22 0.23 0.14 0.40 0.67 0.42 0.45 0.56 0.73 0.64 0.36 0.27
0.00 0.00 0.00 0.00 0.00 0.00 0.00 0.00 0.00 0.00 0.03 0.16 0.08 0.05 0.01 0.01 0.00 0.00 0.00 0.00 0.00 0.00 0.00 0.00 0.00 0.00 0.00 0.00 0.02 0.00 0.01 0.00 0.00 0.00 0.02 0.00 0.02 0.00 0.00 0.00 0.00 0.00 0.00 0.00 0.00 0.00 0.00 0.00 0.00 0.00 0.00 0.00 0.00 0.00 0.00 0.00 0.00 0.00 0.00 0.01 0.00 0.00 0.03 0.10 0.01 0.13 0.03 0.24 0.13 0.88 0.80 0.72 0.93 0.85 0.27 0.36 0.29 0.13 0.09 0.11 0.26 0.56 0.56 0.69 0.52 0.47 0.30 0.33
0.00 0.01 0.00 0.00 0.00 0.00 0.00 0.00 0.00 0.01 0.11 0.36 0.07 0.05 0.01 0.00 0.00 0.00 0.00 0.00 0.00 0.00 0.06 0.00 0.00 0.00 0.00 0.00 0.00 0.00 0.01 0.00 0.00 0.02 0.01 0.02 0.00 0.00 0.00 0.00 0.00 0.00 0.00 0.00 0.00 0.00 0.00 0.00 0.01 0.00 0.00 0.00 0.00 0.00 0.00 0.00 0.00 0.00 0.00 0.01 0.00 0.00 0.01 0.03 0.01 0.02 0.12 0.07 0.08 0.15 0.50 0.47 0.50 0.41 0.44 0.34 0.22 0.10 0.12 0.11 0.34 0.92 1.01 0.93 0.60 0.67 0.64 0.53
0.00 0.00 0.01 0.00 0.00 0.00 0.00 0.00 0.03 0.10 0.07 0.11 0.01 0.02 0.01 0.01 0.00 0.00 0.00 0.00 0.00 0.00 0.00 0.00 0.00 0.00 0.00 0.01 0.02 0.00 0.00 0.00 0.01 0.01 0.00 0.01 0.00 0.01 0.00 0.00 0.00 0.00 0.00 0.00 0.00 0.00 0.00 0.00 0.01 0.01 0.00 0.00 0.00 0.00 0.00 0.00 0.00 0.00 0.00 0.00 0.00 0.01 0.05 0.03 0.05 0.00 0.01 0.05 0.16 0.13 0.38 0.64 0.57 0.66 0.54 1.19 1.11 0.88 0.58 1.08 1.07 1.13 0.93 0.80 0.53 0.62 0.79 0.44
0.00 0.05 0.00 0.00 0.00 0.00 0.00 0.09 0.07 0.05 0.05 0.10 0.11 0.01 0.02 0.00 0.01 0.00 0.00 0.00 0.00 0.00 0.00 0.00 0.00 0.00 0.00 0.00 0.00 0.01 0.00 0.00 0.02 0.02 0.01 0.03 0.00 0.00 0.00 0.00 0.00 0.00 0.00 0.00 0.01 0.04 0.00 0.01 0.00 0.00 0.01 0.01 0.00 0.00 0.00 0.00 0.00 0.00 0.00 0.00 0.00 0.00 0.01 0.03 0.02 0.02 0.00 0.04 0.03 0.09 0.17 0.64 0.22 0.69 0.36 0.26 0.26 0.18 0.54 0.63 0.67 0.82 0.57 0.35 0.34 0.45 0.79 0.84
0.00 0.01 0.00 0.00 0.00 0.00 0.00 0.05 0.03 0.02 0.08 0.03 0.01 0.03 0.01 0.02 0.01 0.04 0.01 0.03 0.02 0.05 0.02 0.01 0.00 0.01 0.01 0.00 0.00 0.00 0.00 0.01 0.02 0.03 0.02 0.02 0.02 0.00 0.00 0.00 0.00 0.00 0.00 0.00 0.00 0.00 0.00 0.00 0.01 0.00 0.00 0.00 0.00 0.01 0.00 0.00 0.00 0.00 0.00 0.00 0.00 0.00 0.00 0.00 0.04 0.02 0.05 0.14 0.04 0.18 0.17 0.43 0.29 0.32 0.46 0.68 0.38 0.07 0.15 0.45 0.78 0.37 0.44 0.29 0.88 0.60 0.94 1.04
0.00 0.01 0.00 0.00 0.00 0.00 0.02 0.14 0.14 0.04 0.01 0.01 0.02 0.03 0.00 0.01 0.01 0.06 0.04 0.05 0.04 0.05 0.04 0.03 0.02 0.04 0.02 0.00 0.01 0.01 0.01 0.02 0.04 0.03 0.04 0.05 0.04 0.01 0.00 0.00 0.00 0.00 0.00 0.00 0.00 0.03 0.00 0.00 0.00 0.02 0.01 0.00 0.00 0.00 0.00 0.00 0.00 0.01 0.00 0.00 0.00 0.00 0.00 0.00 0.02 0.02 0.01 0.03 0.07 0.12 0.30 0.52 0.24 0.26 0.16 0.58 0.20 0.12 0.28 0.54 0.48 0.25 0.28 0.52 0.78 1.56 1.16 1.14
0.02 0.01 0.00 0.00 0.00 0.00 0.07 0.10 0.07 0.09 0.02 0.02 0.05 0.02 0.04 0.03 0.02 0.02 0.03 0.05 0.04 0.05 0.01 0.04 0.08 0.09 0.03 0.02 0.01 0.00 0.01 0.00 0.04 0.04 0.05 0.06 0.04 0.02 0.00 0.00 0.00 0.00 0.00 0.00 0.00 0.00 0.00 0.02 0.04 0.07 0.01 0.03 0.03 0.11 0.10 0.17 0.01 0.02 0.00 0.00 0.00 0.00 0.00 0.02 0.02 0.03 0.00 0.07 0.06 0.14 0.40 0.36 0.46 0.36 0.23 0.27 0.12 0.06 0.09 0.16 0.09 0.28 0.59 0.16 0.48 0.85 1.58 1.67
0.02 0.21 0.01 0.00 0.00 0.02 0.02 0.00 0.02 0.07 0.07 0.03 0.02 0.03 0.01 0.06 0.03 0.03 0.02 0.03 0.01 0.02 0.05 0.05 0.03 0.03 0.09 0.08 0.05 0.02 0.01 0.01 0.02 0.06 0.10 0.12 0.06 0.04 0.02 0.01 0.00 0.00 0.00 0.00 0.00 0.00 0.01 0.01 0.00 0.01 0.07 0.16 0.31 0.05 0.00 0.00 0.00 0.01 0.00 0.00 0.00 0.00 0.00 0.00 0.02 0.03 0.03 0.02 0.11 0.11 0.11 0.09 0.11 0.23 0.17 0.14 0.30 0.16 0.11 0.05 0.05 0.07 0.17 0.50 0.38 0.82 1.04 1.24
0.17 0.07 0.02 0.28 0.02 0.12 0.01 0.09 0.05 0.11 0.08 0.03 0.11 0.04 0.06 0.03 0.01 0.03 0.02 0.16 0.08 0.02 0.02 0.06 0.06 0.06 0.13 0.10 0.10 0.07 0.04 0.02 0.03 0.05 0.11 0.11 0.07 0.04 0.03 0.02 0.01 0.00 0.01 0.00 0.00 0.01 0.00 0.01 0.00 0.01 0.00 0.01 0.02 0.00 0.02 0.00 0.00 0.00 0.00 0.00 0.00 0.00 0.00 0.00 0.01 0.03 0.01 0.02 0.08 0.15 0.10 0.14 0.22 0.07 0.12 0.14 0.13 0.30 0.08 0.03 0.13 0.04 0.17 0.35 0.37 0.56 0.50 1.05
0.27 0.08 0.06 0.41 0.16 0.08 0.13 0.07 0.03 0.07 0.06 0.09 0.39 0.05 0.06 0.03 0.02 0.10 0.01 0.02 0.02 0.08 0.06 0.45 0.08 0.13 0.12 0.09 0.08 0.11 0.12 0.08 0.03 0.06 0.13 0.10 0.11 0.16 0.10 0.07 0.03 0.03 0.01 0.01 0.00 0.01 0.01 0.02 0.02 0.00 0.00 0.00 0.00 0.00 0.01 0.00 0.00 0.00 0.00 0.00 0.01 0.00 0.00 0.00 0.00 0.00 0.01 0.02 0.24 0.31 0.13 0.18 0.14 0.10 0.08 0.09 0.13 0.26 0.29 0.15 0.13 0.08 0.08 0.20 0.26 0.30 0.30 0.31
0.08 0.17 0.03 0.17 0.19 0.15 0.05 0.09 0.02 0.06 0.05 0.06 0.10 0.08 0.03 0.02 0.02 0.04 0.02 0.02 0.01 0.07 0.18 0.21 0.08 0.11 0.10 0.15 0.11 0.19 0.16 0.16 0.22 0.17 0.08 0.16 0.09 0.06 0.08 0.10 0.07 0.02 0.02 0.01 0.01 0.00 0.01 0.01 0.01 0.00 0.00 0.00 0.01 0.00 0.00 0.00 0.00 0.01 0.00 0.00 0.00 0.00 0.00 0.00 0.01 0.01 0.02 0.01 0.04 0.07 0.11 0.20 0.17 0.18 0.08 0.09 0.06 0.22 0.38 0.10 0.08 0.04 0.14 0.29 0.10 0.13 0.28 0.37
0.40 0.23 0.93 0.11 0.49 0.14 0.04 0.06 0.04 0.04 0.05 0.10 0.12 0.17 0.12 0.06 0.06 0.03 0.03 0.03 0.06 0.05 0.12 0.07 0.07 0.07 0.07 0.06 0.09 0.18 0.22 0.06 0.10 0.09 0.04 0.04 0.07 0.06 0.09 0.09 0.11 0.10 0.03 0.05 0.02 0.06 0.00 0.05 0.01 0.04 0.03 0.00 0.00 0.00 0.00 0.00 0.01 0.01 0.00 0.01 0.00 0.01 0.01 0.01 0.00 0.02 0.03 0.03 0.04 0.16 0.08 0.17 0.19 0.06 0.12 0.11 0.10 0.20 0.29 0.45 0.17 0.20 0.07 0.25 0.20 0.07 0.12 0.20
0.36 0.58 0.91 0.80 0.33 0.26 0.20 0.10 0.12 0.19 0.22 0.05 0.09 0.12 0.05 0.11 0.11 0.13 0.05 0.03 0.04 0.10 0.20 0.08 0.05 0.07 0.07 0.07 0.08 0.15 0.06 0.05 0.04 0.03 0.02 0.02 0.10 0.09 0.07 0.15 0.06 0.18 0.15 0.10 0.07 0.05 0.00 0.11 0.00 0.01 0.06 0.02 0.01 0.03 0.01 0.01 0.01 0.01 0.02 0.01 0.01 0.00 0.01 0.02 0.02 0.05 0.03 0.11 0.15 0.16 0.12 0.23 0.12 0.09 0.03 0.18 0.17 0.08 0.56 0.64 0.27 0.12 0.12 0.28 0.12 0.10 0.07 0.08
0.33 0.70 0.68 0.96 0.59 0.32 0.20 0.05 0.09 0.15 0.22 0.13 0.29 0.10 0.11 0.10 0.07 0.14 0.29 0.07 0.09 0.27 0.11 0.14 0.10 0.09 0.04 0.05 0.17 0.14 0.09 0.03 0.02 0.01 0.01 0.01 0.00 0.01 0.02 0.03 0.04 0.05 0.10 0.10 0.09 0.10 0.06 0.06 0.04 0.09 0.08 0.04 0.02 0.04 0.05 0.02 0.02 0.03 0.07 0.02 0.00 0.00 0.04 0.01 0.02 0.05 0.07 0.04 0.19 0.23 0.47 0.10 0.14 0.21 0.16 0.08 0.09 0.31 0.24 0.50 0.60 0.35 0.10 0.33 0.25 0.16 0.27 0.16